Lapse_Rate
6.4 7.0 7.0 6.1 5.9 5.2 5.5 5.3 5.1 5.1 4.9 4.3 4.1 4.5 4.3 3.0 2.5 2.8 4.4 5.0 5.9 6.3 5.8 5.3 6.0 6.2 5.7 6.9 7.4 7.5 6.1 5.4 5.7 5.6 5.4 5.3 5.5 5.6 5.4 5.7 5.6 5.9 6.3
6.0 6.6 6.4 6.1 5.6 5.6 5.3 5.2 5.4 5.6 6.0 5.6 4.9 4.9 5.4 4.8 4.2 3.0 4.3 5.1 5.3 5.6 6.5 6.1 5.9 6.4 5.8 7.0 7.2 7.4 6.1 6.0 5.2 6.3 5.1 5.1 5.5 5.3 5.6 4.9 5.6 4.8 5.6
5.9 6.3 6.9 6.7 6.0 5.5 5.6 6.1 5.8 5.8 6.1 6.3 6.0 5.8 5.4 5.4 5.3 5.4 5.0 4.6 5.4 5.2 5.8 6.4 6.2 6.2 6.5 6.1 7.1 7.3 6.8 5.9 5.8 5.5 4.8 5.1 4.8 4.6 4.7 5.0 4.4 4.0 3.6
6.3 6.5 7.6 7.0 6.7 6.9 6.3 6.2 6.4 6.1 6.4 6.3 6.6 6.6 6.4 5.8 5.5 5.2 4.9 4.7 5.1 5.1 5.9 5.6 5.4 5.7 6.1 6.0 6.2 6.9 7.1 5.4 5.5 5.4 6.7 4.8 4.0 4.6 4.4 4.2 3.8 4.2 4.5
6.7 7.3 7.6 7.7 7.0 6.3 6.1 6.0 6.6 6.4 6.2 6.3 6.8 6.9 6.9 6.6 5.8 5.3 5.5 6.1 5.5 6.1 5.4 5.4 4.9 5.3 5.7 6.0 5.7 6.2 6.3 7.0 6.1 6.0 6.1 6.5 4.4 4.6 4.1 4.0 3.7 4.0 3.7
7.3 7.7 7.9 7.9 6.9 6.8 6.9 6.3 6.5 7.0 6.6 6.2 6.7 6.9 7.1 6.8 6.0 6.0 5.7 5.6 5.4 5.6 6.3 5.9 5.5 5.6 5.4 5.4 5.6 5.3 5.1 6.2 6.9 5.9 6.0 6.0 6.4 4.8 4.2 4.1 3.9 3.5 3.3
7.8 7.7 7.7 7.9 6.8 6.5 6.3 6.9 7.0 7.3 6.6 6.8 7.0 6.9 6.8 6.6 6.6 5.8 5.9 5.7 5.9 5.6 6.3 6.2 6.2 6.0 5.6 5.3 5.6 5.8 5.1 4.7 5.4 5.6 6.0 5.7 6.1 5.8 5.8 4.8 4.8 4.9 3.9
7.0 7.2 8.0 7.8 7.8 7.0 6.2 6.6 7.3 7.7 6.6 7.4 6.9 6.8 7.1 6.7 6.9 6.0 6.3 5.7 6.6 5.9 6.0 6.4 6.3 5.3 5.6 5.9 5.8 5.8 5.5 4.8 4.3 4.9 5.8 5.6 5.7 5.1 5.2 5.5 5.2 5.3 5.4
7.5 7.5 7.6 7.6 7.0 6.8 5.6 5.2 6.5 7.4 8.0 6.5 6.1 6.5 6.7 6.5 6.5 6.0 5.6 6.0 5.8 6.9 6.2 6.0 6.3 5.9 5.6 5.6 5.4 5.6 5.1 5.8 4.4 4.5 4.2 4.2 4.7 4.0 5.1 4.6 4.9 6.1 6.8
7.1 7.3 7.0 7.0 6.9 6.8 6.6 5.4 5.9 6.5 6.7 6.4 5.9 6.1 5.7 5.8 5.7 5.6 5.8 5.9 6.0 6.4 6.4 5.9 5.8 5.8 5.5 5.7 5.2 5.8 6.2 5.7 5.5 4.6 4.4 4.4 4.7 4.6 4.5 4.5 5.2 5.5 5.8
7.0 6.8 6.8 6.8 6.8 6.9 6.1 5.5 4.6 4.4 6.6 6.7 6.1 5.7 5.3 5.2 5.2 5.3 5.1 5.2 5.6 5.9 6.0 6.0 5.7 5.4 5.7 5.4 5.5 6.3 6.3 5.2 5.2 4.4 5.3 5.1 4.7 4.8 4.6 4.4 4.7 4.9 5.1
6.8 6.3 6.1 6.4 6.9 7.2 6.7 5.6 5.0 3.8 4.2 4.5 6.5 6.3 6.1 6.0 5.4 5.1 4.6 4.7 4.9 5.0 5.2 5.6 5.8 6.3 5.6 5.2 5.3 6.0 6.7 5.8 5.9 5.0 4.7 5.6 5.0 4.7 4.9 4.7 4.9 5.4 5.5
7.0 7.1 6.5 6.7 7.0 7.1 6.4 5.6 4.9 3.4 3.3 4.5 5.7 6.8 7.2 6.0 5.8 5.9 6.0 6.0 5.9 5.8 5.8 6.5 6.3 6.7 6.7 6.2 5.2 5.3 5.9 5.8 5.7 5.2 5.2 5.4 5.4 5.2 4.7 4.5 4.9 5.0 5.1
7.3 7.1 6.8 6.7 7.3 7.1 6.6 4.9 4.6 4.5 4.4 4.1 5.1 5.6 5.8 6.7 6.4 6.4 6.4 6.5 6.3 6.3 6.1 6.4 6.2 6.7 6.7 6.5 6.2 6.0 5.2 4.7 5.7 5.6 5.0 4.9 5.0 5.6 5.0 4.6 4.2 4.4 4.8
6.5 6.2 6.4 6.6 6.5 6.5 6.3 5.7 3.9 3.4 3.5 3.4 3.2 3.1 4.8 5.2 5.2 5.4 5.1 5.5 6.6 5.2 5.1 5.2 5.6 6.2 5.8 6.4 5.6 4.9 4.3 4.9 5.1 4.4 3.5 4.1 3.9 3.0 4.1 4.9 5.1 5.2 5.3
6.6 6.5 6.4 6.6 6.7 7.3 6.9 7.0 6.6 5.2 4.6 4.7 3.2 3.2 4.6 4.3 4.2 3.5 3.2 2.8 2.4 2.0 2.9 3.3 2.6 2.9 3.4 2.2 2.1 3.4 5.2 4.3 3.9 3.9 3.1 3.3 2.7 2.4 1.9 2.0 2.7 3.5 3.8
6.6 6.1 6.1 6.4 5.8 6.4 6.2 6.5 5.2 4.7 5.0 5.5 4.7 3.6 3.9 3.3 2.7 3.1 2.5 1.9 1.4 1.3 1.0 0.8 1.8 1.4 1.3 1.5 2.3 2.7 3.4 2.9 2.2 2.1 2.9 1.1 0.1 0.3 1.1 1.4 1.2 0.9 0.8
6.1 5.4 4.8 5.0 5.4 5.2 4.8 4.7 4.8 4.0 5.0 4.7 4.6 4.0 3.3 2.6 2.3 2.1 2.8 2.1 1.8 1.4 1.3 1.4 1.6 1.3 0.6 0.6 0.3 0.5 0.9 0.7 0.2 0.3 0.4 -0.2 -0.2 0.3 0.5 1.0 0.5 0.2 -0.1
5.6 5.6 5.6 4.9 3.8 4.1 4.0 3.3 2.9 3.7 3.4 4.8 4.6 4.6 3.7 2.7 3.3 2.8 2.8 3.3 3.2 2.1 1.9 2.1 2.5 1.8 1.3 1.8 1.4 1.0 0.6 0.2 -0.1 -0.3 0.1 0.2 0.2 0.8 1.0 0.9 0.9 1.3 1.0
5.0 4.4 5.1 4.5 2.8 2.6 3.4 2.7 2.3 2.5 2.9 3.1 3.8 4.2 4.3 4.4 4.1 4.1 3.8 3.5 3.7 2.5 1.5 2.7 2.9 1.9 1.2 1.0 1.8 1.8 2.0 1.2 1.2 1.4 1.3 1.6 1.6 1.8 2.3 2.1 1.9 1.9 1.4
4.9 4.5 4.7 3.8 3.0 3.0 3.4 2.7 2.1 1.7 2.9 2.5 2.1 2.4 2.8 3.1 3.0 3.1 3.9 3.8 3.2 2.6 3.0 3.1 2.9 2.6 3.5 3.4 3.2 3.2 2.4 1.9 1.8 2.0 1.8 2.0 3.1 2.8 2.7 2.6 2.0 2.1 3.0
4.5 4.9 3.3 3.6 3.3 2.7 2.6 2.1 1.7 2.5 3.3 2.6 1.8 1.4 1.3 1.7 2.3 2.1 2.4 2.6 2.4 2.5 2.6 2.6 2.3 2.1 1.7 2.3 2.3 2.2 2.3 1.9 1.2 1.0 1.0 1.5 2.3 2.3 2.3 2.2 2.5 2.2 2.0
3.7 3.8 3.1 3.0 3.0 2.4 1.9 1.5 1.4 1.9 2.5 2.2 1.8 1.4 1.9 2.1 2.5 2.3 2.7 2.7 2.8 2.2 2.4 2.4 1.9 2.0 1.9 1.3 3.0 3.4 3.0 3.0 2.6 2.7 2.7 2.8 2.4 2.1 2.0 2.1 2.0 1.7 1.5
3.3 3.5 3.0 2.7 2.8 2.7 2.5 2.1 1.7 2.0 2.2 1.7 1.7 1.7 1.7 1.2 0.4 0.9 1.1 -0.3 -0.8 0.4 0.4 0.1 -0.3 -0.1 -0.2 -0.2 -0.0 0.6 0.6 2.0 2.1 2.7 1.5 1.7 1.8 1.8 1.7 1.6 1.7 2.0 2.3
2.8 2.8 2.4 2.2 2.6 3.1 2.8 2.5 2.2 1.9 2.0 1.8 1.5 1.0 0.9 0.5 -0.6 -1.0 -1.4 -1.4 -1.3 -0.0 0.1 -0.3 -0.5 -0.4 -1.0 -0.3 0.7 0.7 0.4 0.4 2.4 1.6 1.5 0.7 0.3 0.3 0.5 1.3 1.3 1.9 2.2
2.9 2.3 1.8 2.0 2.2 2.7 2.4 2.6 2.5 2.2 1.9 2.1 1.8 1.3 1.2 0.8 0.7 -0.3 -1.2 0.9 1.0 1.4 1.8 2.1 1.0 0.7 1.7 2.3 2.8 3.1 3.4 3.9 3.6 1.2 0.5 0.6 0.9 1.2 1.5 1.8 2.6 2.6 2.9
Wind_Speed
9 5 5 7 6 7 8 8 7 8 6 4 4 5 7 5 4 4 10 15 16 15 12 6 10 10 8 10 11 7 7 5 5 4 2 3 6 6 5 7 7 9 13
7 8 8 8 7 8 8 9 9 8 7 4 4 4 4 5 6 4 9 12 15 17 13 12 11 12 9 10 13 11 5 5 5 6 3 2 3 4 6 5 5 7 11
7 10 12 11 9 9 9 9 9 9 9 8 4 5 4 3 4 7 6 9 12 15 15 14 12 11 11 10 12 12 12 9 6 7 5 3 4 3 4 8 7 7 5
13 14 15 11 12 13 10 9 9 9 8 8 7 9 9 9 5 4 5 5 9 7 13 12 12 13 10 11 11 11 11 7 9 3 9 3 4 4 2 3 5 5 6
13 16 15 13 12 16 15 13 12 9 8 8 9 9 11 8 5 5 6 9 6 10 7 11 12 12 11 14 11 12 12 11 9 8 9 9 3 3 2 3 3 3 4
15 15 14 15 14 14 15 16 16 13 9 9 11 13 13 10 7 7 6 6 4 6 9 9 11 12 11 12 12 11 11 10 12 8 9 9 10 5 3 2 2 4 4
16 16 17 14 15 15 14 16 14 12 9 10 12 13 13 12 11 8 6 6 6 5 8 8 10 11 13 11 13 14 11 10 10 11 9 9 9 6 6 4 4 3 4
15 16 14 13 13 14 15 14 9 8 8 11 9 9 11 7 9 7 7 6 8 6 6 10 8 9 13 12 14 12 10 11 9 10 9 7 7 7 6 5 3 1 2
15 15 14 12 13 13 13 12 8 7 9 9 7 9 10 11 9 9 6 5 5 5 6 5 9 10 10 13 14 9 13 11 10 10 9 6 4 3 4 3 3 6 8
15 13 11 13 12 12 12 12 10 7 8 7 6 6 7 7 7 6 7 7 6 5 6 6 5 6 8 10 10 9 14 12 9 8 10 10 8 6 5 5 6 7 10
15 12 10 10 11 11 12 11 11 11 5 6 6 7 6 7 7 7 7 7 6 7 7 7 7 6 6 7 8 11 12 12 11 10 11 12 12 9 7 7 7 8 7
15 14 14 13 12 11 11 11 10 9 7 6 6 7 7 7 7 9 8 7 7 7 7 7 7 9 7 7 8 10 12 13 15 13 12 13 9 10 9 7 10 10 10
13 12 13 14 13 14 13 10 10 10 9 5 5 3 5 7 7 7 7 7 7 7 7 7 8 8 8 8 7 9 12 12 12 10 10 11 10 9 8 8 8 8 8
9 10 13 14 14 15 14 15 14 14 5 5 6 5 6 4 5 6 7 7 7 7 7 7 7 8 7 7 7 9 10 9 9 9 11 8 9 10 10 10 11 10 10
10 11 11 12 14 16 16 15 15 14 11 11 10 8 6 6 3 3 3 4 3 4 6 6 7 7 6 5 8 7 8 11 11 11 9 8 10 14 12 8 9 9 10
9 10 10 11 13 12 13 12 11 12 12 12 9 7 5 7 7 7 7 6 7 7 5 6 7 7 3 10 9 5 6 8 8 8 6 3 4 3 6 7 7 5 5
7 9 9 9 10 10 10 11 11 12 13 13 12 11 10 9 8 8 9 8 8 8 9 10 8 7 7 11 6 7 2 4 6 5 5 6 5 8 4 8 10 10 12
6 7 7 6 7 9 9 9 10 11 12 13 13 13 11 10 9 7 8 7 7 8 7 9 8 8 9 11 14 15 10 10 10 10 9 8 9 9 7 5 6 5 5
3 4 5 5 6 7 7 8 10 9 10 13 13 12 11 10 9 9 8 6 7 9 10 10 8 10 12 17 13 14 10 12 12 11 11 9 9 13 12 7 6 5 5
0 3 4 4 6 7 6 7 7 8 10 9 9 9 9 8 9 10 9 8 9 11 11 11 8 16 14 20 16 10 6 11 8 9 10 17 12 16 13 6 5 4 2
3 2 3 2 3 6 5 6 6 7 6 6 6 6 6 6 7 7 8 8 9 10 9 8 9 11 9 13 21 16 9 8 8 7 7 6 15 15 14 12 7 7 4
5 3 4 2 0 3 4 5 5 6 5 5 6 6 7 6 5 7 6 6 6 6 5 4 4 4 7 16 19 21 18 14 8 7 5 6 15 15 16 11 16 16 10
6 4 4 4 1 2 3 4 3 5 5 6 6 6 5 5 6 5 4 3 4 4 4 3 3 5 5 6 16 16 16 15 6 4 11 15 14 14 11 16 17 15 8
6 4 4 5 5 1 2 1 3 4 4 4 4 4 4 5 6 4 4 4 4 3 4 4 4 4 5 5 4 5 5 10 5 7 8 11 11 13 10 9 9 6 6
6 5 6 6 6 3 2 1 2 3 4 3 3 3 3 4 4 5 4 4 4 4 3 3 3 4 4 5 8 7 5 4 7 6 4 3 3 3 3 4 4 3 3
5 6 7 6 6 4 4 3 1 2 3 4 2 2 1 1 2 3 3 8 7 8 9 10 6 4 8 9 9 10 12 10 9 4 4 4 4 4 4 4 6 6 8
Wind_Direction
259 236 288 259 245 227 231 239 249 247 243 244 233 231 232 231 229 233 239 204 211 214 207 203 204 196 205 205 194 191 187 208 184 163 224 229 204 206 208 215 213 218 212
324 303 328 329 303 261 236 228 227 233 236 230 235 224 217 224 227 221 231 234 207 206 205 203 206 200 207 207 203 196 186 195 189 197 142 220 295 237 213 207 214 219 213
329 336 326 310 299 288 269 253 230 221 225 228 230 244 270 255 220 223 224 226 222 207 208 206 206 206 209 206 201 196 195 199 203 200 164 172 214 167 218 216 213 211 212
344 330 310 309 306 300 302 283 251 228 220 213 228 227 232 238 235 221 217 222 222 225 206 208 210 208 207 210 203 200 198 173 202 205 222 218 154 183 194 238 216 206 211
326 308 304 302 308 297 279 274 271 237 220 214 219 229 234 237 233 236 236 225 235 217 228 205 209 208 213 217 204 211 207 202 192 202 209 227 249 204 151 193 213 219 217
317 306 305 300 293 292 286 277 259 243 222 218 224 229 230 226 229 227 224 231 225 232 220 215 218 218 217 221 210 206 215 217 203 195 208 211 215 215 182 171 179 196 233
319 311 303 303 300 293 287 283 253 236 224 230 233 224 229 222 226 219 217 214 217 221 220 225 221 223 223 213 223 213 209 208 211 200 207 207 218 213 208 192 201 184 219
313 301 306 307 303 309 308 303 241 235 223 232 226 224 226 227 228 225 218 220 225 219 223 211 214 209 226 230 222 222 221 208 206 223 216 207 212 208 197 189 167 254 269
325 317 314 313 314 312 307 306 257 237 243 212 213 215 213 217 221 232 239 230 228 230 243 233 215 219 221 217 231 216 233 207 204 206 218 223 229 198 240 163 162 204 247
318 320 322 321 319 314 323 318 326 227 249 203 203 213 209 211 218 219 233 238 231 229 242 255 252 224 222 218 214 227 234 229 208 209 222 222 215 220 216 206 221 220 232
335 332 327 326 331 339 344 343 350 348 279 217 206 208 201 206 208 218 224 223 226 230 230 237 247 253 229 220 222 215 217 214 205 199 208 215 216 217 209 204 211 222 223
331 335 342 353 356 357 351 345 339 331 319 323 224 208 200 196 204 214 217 220 224 221 227 231 234 241 240 219 208 223 220 218 215 206 200 217 210 217 220 213 215 223 224
329 339 349 355 347 350 356 354 340 322 298 308 335 289 202 205 210 212 210 210 221 236 240 235 237 234 238 242 219 214 222 210 213 200 201 213 209 212 212 213 221 227 234
337 350 0 357 358 359 3 2 3 5 356 331 9 23 8 275 230 218 207 208 216 220 228 235 234 231 238 221 230 213 215 205 209 214 205 198 214 225 224 221 224 223 228
357 1 3 359 356 2 5 11 12 19 21 25 19 359 351 8 327 348 335 298 263 266 259 238 244 255 236 226 230 229 217 202 203 215 205 196 202 212 221 225 232 231 237
350 353 2 5 359 4 5 7 10 15 21 26 12 359 19 33 29 45 51 63 50 37 28 44 25 9 1 332 297 256 229 228 189 203 200 199 32 315 277 253 268 238 229
350 354 354 6 358 358 5 15 17 12 19 22 24 30 42 45 39 52 57 51 57 55 47 45 35 24 17 6 303 254 33 70 56 69 95 89 65 55 33 50 62 61 50
356 345 342 356 3 352 6 10 25 23 18 28 32 37 42 44 38 43 62 60 68 72 69 62 53 46 32 34 61 79 87 84 72 66 67 72 57 43 50 50 59 49 45
346 338 332 348 356 343 2 9 17 23 22 25 30 38 45 45 49 42 41 44 73 71 65 56 46 55 43 31 57 78 76 86 77 69 58 60 56 43 47 52 48 40 40
199 321 331 356 356 342 18 18 12 14 23 15 19 23 34 50 54 58 49 46 61 65 57 49 38 52 50 39 44 64 93 86 86 74 59 58 61 53 49 50 41 42 23
244 278 335 7 344 344 15 34 10 10 6 8 12 19 14 40 45 55 55 58 58 59 57 57 48 50 54 52 53 54 73 77 79 68 61 53 60 56 52 51 41 22 8
236 238 285 293 37 12 14 51 29 346 18 22 18 17 22 18 33 55 50 62 71 76 73 73 72 66 51 55 53 53 58 60 68 64 56 55 54 52 47 42 33 31 33
233 228 249 294 284 59 34 29 351 6 21 38 27 20 32 24 18 42 62 79 99 113 115 111 89 63 43 37 47 55 55 58 64 101 77 61 51 50 43 37 33 29 25
223 227 237 271 279 204 12 9 344 352 33 53 33 21 29 39 19 17 38 36 26 68 68 65 78 81 60 47 40 49 47 48 36 64 64 52 50 47 41 34 28 21 26
211 204 219 241 254 220 255 248 327 359 355 20 33 41 41 62 62 42 32 50 20 40 62 61 63 79 56 44 58 56 46 41 64 73 64 58 47 39 34 24 14 11 26
212 210 219 231 246 231 227 239 204 343 340 335 356 7 346 69 113 116 56 51 64 61 64 73 115 85 87 67 59 59 53 59 69 59 52 40 38 34 20 15 6 6 8